Overview Statistics Trail Chart Weather Telemetry Raw packets
 

This is the latest recevied weather packets stored in our database for station/object VE8SKI. If no packets are shown the sender has not sent any weather packets the latest 10 day(s).

<< 44 45 46 47 48 49 50 >>
Time Temp. Humidity Pressure Rain* Wind** Luminosity Snow
1777808831 -3.33° C 91% 1014 hPa 0 mm 2.24 m/s, 32° - -
1777808547 -3.33° C 92% 1013.9 hPa 0 mm 2.68 m/s, 84° - -
1777808232 -3.33° C 92% 1013.9 hPa 0 mm 1.79 m/s, 35° - -
1777807932 -3.33° C 92% 1013.8 hPa 0 mm 1.79 m/s, 48° - -
1777807632 -3.33° C 92% 1013.8 hPa 0 mm 1.79 m/s, 75° - -
1777807330 -3.33° C 91% 1013.7 hPa 0 mm 2.24 m/s, 13° - -
1777807030 -3.33° C 91% 1013.6 hPa 0 mm 2.68 m/s, 44° - -
1777806730 -2.78° C 91% 1013.5 hPa 0 mm 1.79 m/s, 51° - -
1777806430 -2.78° C 91% 1013.4 hPa 0 mm 2.24 m/s, 65° - -
1777806130 -2.78° C 91% 1013.3 hPa 0 mm 2.68 m/s, 55° - -
1777805830 -2.78° C 91% 1013.2 hPa 0 mm 2.68 m/s, 52° - -
1777805528 -2.78° C 91% 1013.1 hPa 0 mm 1.79 m/s, 28° - -
1777805228 -2.78° C 91% 1013 hPa 0 mm 1.79 m/s, 84° - -
1777804928 -2.78° C 91% 1012.9 hPa 0 mm 2.24 m/s, 39° - -
1777804629 -2.78° C 91% 1012.8 hPa 0 mm 2.24 m/s, 42° - -
1777804329 -2.22° C 90% 1012.8 hPa 0 mm 1.79 m/s, 93° - -
1777804029 -2.22° C 90% 1012.6 hPa 0 mm 1.79 m/s, 34° - -
1777803726 -2.22° C 90% 1012.5 hPa 0 mm 1.79 m/s, 134° - -
1777803427 -2.22° C 90% 1012.4 hPa 0 mm 2.24 m/s, 46° - -
1777803127 -2.22° C 90% 1012.4 hPa 0 mm 2.68 m/s, 87° - -
1777802827 -2.22° C 89% 1012.3 hPa 0 mm 3.13 m/s, 86° - -
1777802527 -2.22° C 89% 1012.1 hPa 0 mm 2.68 m/s, 86° - -
1777802228 -2.22° C 89% 1012 hPa 0 mm 3.13 m/s, 82° - -
1777801925 -2.22° C 89% 1012 hPa 0 mm 2.68 m/s, 77° - -
1777801625 -1.67° C 89% 1012 hPa 0 mm 1.34 m/s, 70° - -

* Rain latest hour (hover to see other rain measurements)
** Current wind speed in m/s (hover to see current wind gust speed)